contact:dominique.lefevre@mio.osupytheas.fr, maurice.libes@osupytheas.fr, didier.mallarino@osupytheas.fr
Project:EMSO http://www.emso-fr.org/EMSO-France
Depth: 2436.0 m
Title:EMSO Ligure Ouest : Data MII capteur MICROCAT
DateTime_Computer,Latitude,Longitude,Temperature,Conductivity,Pressure,DateTime_Instrument
DateTime_Computer,Latitude,Longitude,degC,S m-1,dbar,DateTime_Instrument
2023-09-04T00:01:06Z,42.805,6.029,13.3093,4.60142,2470.787,2023-9-04T02:03:27Z
2023-09-04T00:04:09Z,42.805,6.029,13.3085,4.60155,2470.763,2023-9-04T02:06:30Z
2023-09-04T00:07:12Z,42.805,6.029,13.3084,4.60135,2470.787,2023-9-04T02:09:33Z
2023-09-04T00:10:16Z,42.805,6.029,13.3076,4.60126,2470.787,2023-9-04T02:12:37Z
2023-09-04T00:13:19Z,42.805,6.029,13.3050,4.60127,2470.8,2023-9-04T02:15:40Z
2023-09-04T00:16:22Z,42.805,6.029,13.3065,4.60150,2470.8,2023-9-04T02:18:43Z
2023-09-04T00:19:25Z,42.805,6.029,13.3082,4.60160,2470.777,2023-9-04T02:21:46Z
2023-09-04T00:22:28Z,42.805,6.029,13.3086,4.60190,2470.787,2023-9-04T02:24:49Z
2023-09-04T00:25:31Z,42.805,6.029,13.3082,4.60142,2470.763,2023-9-04T02:27:52Z
2023-09-04T00:28:34Z,42.805,6.029,13.3085,4.60139,2470.763,2023-9-04T02:30:55Z
2023-09-04T00:31:37Z,42.805,6.029,13.3092,4.60165,2470.763,2023-9-04T02:33:58Z
2023-09-04T00:34:40Z,42.805,6.029,13.3102,4.60177,2470.777,2023-9-04T02:37:01Z
2023-09-04T00:37:43Z,42.805,6.029,13.3106,4.60163,2470.763,2023-9-04T02:40:04Z
2023-09-04T00:40:46Z,42.805,6.029,13.3098,4.60167,2470.754,2023-9-04T02:43:07Z
2023-09-04T00:43:49Z,42.805,6.029,13.3103,4.60165,2470.754,2023-9-04T02:46:10Z
2023-09-04T00:46:53Z,42.805,6.029,13.3098,4.60185,2470.754,2023-9-04T02:49:14Z
2023-09-04T00:49:56Z,42.805,6.029,13.3105,4.60197,2470.754,2023-9-04T02:52:17Z
2023-09-04T00:52:59Z,42.805,6.029,13.3083,4.60167,2470.754,2023-9-04T02:55:20Z
2023-09-04T00:56:02Z,42.805,6.029,13.3093,4.60148,2470.754,2023-9-04T02:58:23Z
2023-09-04T00:59:05Z,42.805,6.029,13.3076,4.60160,2470.74,2023-9-04T03:01:26Z
2023-09-04T01:02:08Z,42.805,6.029,13.3100,4.60146,2470.74,2023-9-04T03:04:29Z
2023-09-04T01:05:11Z,42.805,6.029,13.3109,4.60157,2470.754,2023-9-04T03:07:32Z
2023-09-04T01:08:14Z,42.805,6.029,13.3099,4.60129,2470.73,2023-9-04T03:10:35Z
2023-09-04T01:11:17Z,42.805,6.029,13.3082,4.60141,2470.73,2023-9-04T03:13:38Z
2023-09-04T01:14:20Z,42.805,6.029,13.3082,4.60167,2470.73,2023-9-04T03:16:41Z
2023-09-04T01:17:23Z,42.805,6.029,13.3054,4.60213,2470.73,2023-9-04T03:19:44Z
2023-09-04T01:20:26Z,42.805,6.029,13.3076,4.60200,2470.73,2023-9-04T03:22:47Z
2023-09-04T01:23:29Z,42.805,6.029,13.3085,4.60175,2470.73,2023-9-04T03:25:50Z
2023-09-04T01:26:33Z,42.805,6.029,13.3098,4.60143,2470.763,2023-9-04T03:28:54Z
2023-09-04T01:29:36Z,42.805,6.029,13.3073,4.60162,2470.73,2023-9-04T03:31:57Z
2023-09-04T01:32:39Z,42.805,6.029,13.3099,4.60204,2470.707,2023-9-04T03:35:00Z
2023-09-04T01:35:42Z,42.805,6.029,13.3085,4.60214,2470.754,2023-9-04T03:38:03Z
2023-09-04T01:38:45Z,42.805,6.029,13.3093,4.60221,2470.73,2023-9-04T03:41:06Z
2023-09-04T01:41:48Z,42.805,6.029,13.3101,4.60182,2470.707,2023-9-04T03:44:09Z
2023-09-04T01:44:51Z,42.805,6.029,13.3123,4.60174,2470.707,2023-9-04T03:47:12Z
2023-09-04T01:47:54Z,42.805,6.029,13.3060,4.60181,2470.707,2023-9-04T03:50:15Z
2023-09-04T01:50:57Z,42.805,6.029,13.3070,4.60175,2470.73,2023-9-04T03:53:18Z
2023-09-04T01:54:00Z,42.805,6.029,13.3073,4.60155,2470.73,2023-9-04T03:56:21Z
2023-09-04T01:57:03Z,42.805,6.029,13.3063,4.60168,2470.707,2023-9-04T03:59:24Z
2023-09-04T02:00:06Z,42.805,6.029,13.3073,4.60144,2470.717,2023-9-04T04:02:27Z
2023-09-04T02:03:09Z,42.805,6.029,13.3068,4.60146,2470.707,2023-9-04T04:05:30Z
2023-09-04T02:06:13Z,42.805,6.029,13.3061,4.60169,2470.693,2023-9-04T04:08:34Z
2023-09-04T02:09:16Z,42.805,6.029,13.3071,4.60135,2470.73,2023-9-04T04:11:37Z
2023-09-04T02:12:19Z,42.805,6.029,13.3111,4.60130,2470.693,2023-9-04T04:14:40Z
2023-09-04T02:15:22Z,42.805,6.029,13.3084,4.60138,2470.693,2023-9-04T04:17:43Z
2023-09-04T02:18:25Z,42.805,6.029,13.3048,4.60164,2470.707,2023-9-04T04:20:46Z
2023-09-04T02:21:28Z,42.805,6.029,13.3069,4.60139,2470.67,2023-9-04T04:23:49Z
2023-09-04T02:24:31Z,42.805,6.029,13.3052,4.60184,2470.67,2023-9-04T04:26:52Z
2023-09-04T02:27:34Z,42.805,6.029,13.3094,4.60175,2470.67,2023-9-04T04:29:55Z
2023-09-04T02:30:37Z,42.805,6.029,13.3076,4.60188,2470.684,2023-9-04T04:32:58Z
2023-09-04T02:33:40Z,42.805,6.029,13.3058,4.60186,2470.707,2023-9-04T04:36:01Z
2023-09-04T02:36:43Z,42.805,6.029,13.3069,4.60209,2470.67,2023-9-04T04:39:04Z
2023-09-04T02:39:46Z,42.805,6.029,13.3090,4.60190,2470.707,2023-9-04T04:42:07Z
2023-09-04T02:42:50Z,42.805,6.029,13.3076,4.60201,2470.707,2023-9-04T04:45:11Z
2023-09-04T02:45:53Z,42.805,6.029,13.3061,4.60170,2470.684,2023-9-04T04:48:14Z
2023-09-04T02:48:56Z,42.805,6.029,13.3070,4.60172,2470.67,2023-9-04T04:51:17Z
2023-09-04T02:51:59Z,42.805,6.029,13.3051,4.60192,2470.67,2023-9-04T04:54:20Z
2023-09-04T02:55:02Z,42.805,6.029,13.3074,4.60171,2470.646,2023-9-04T04:57:23Z
2023-09-04T02:58:05Z,42.805,6.029,13.3054,4.60201,2470.693,2023-9-04T05:00:26Z
2023-09-04T03:01:08Z,42.805,6.029,13.3064,4.60178,2470.684,2023-9-04T05:03:29Z
2023-09-04T03:04:11Z,42.805,6.029,13.3057,4.60197,2470.646,2023-9-04T05:06:32Z
2023-09-04T03:07:14Z,42.805,6.029,13.3075,4.60215,2470.684,2023-9-04T05:09:35Z
2023-09-04T03:10:17Z,42.805,6.029,13.3068,4.60165,2470.67,2023-9-04T05:12:38Z
2023-09-04T03:13:20Z,42.805,6.029,13.3070,4.60186,2470.67,2023-9-04T05:15:41Z
2023-09-04T03:16:23Z,42.805,6.029,13.3073,4.60156,2470.684,2023-9-04T05:18:44Z
2023-09-04T03:19:26Z,42.805,6.029,13.3070,4.60178,2470.67,2023-9-04T05:21:47Z
2023-09-04T03:22:30Z,42.805,6.029,13.3077,4.60195,2470.684,2023-9-04T05:24:51Z
2023-09-04T03:25:33Z,42.805,6.029,13.3070,4.60205,2470.684,2023-9-04T05:27:54Z
2023-09-04T03:28:36Z,42.805,6.029,13.3059,4.60183,2470.661,2023-9-04T05:30:57Z
2023-09-04T03:31:39Z,42.805,6.029,13.3069,4.60194,2470.661,2023-9-04T05:34:00Z
2023-09-04T03:34:42Z,42.805,6.029,13.3079,4.60178,2470.684,2023-9-04T05:37:03Z
2023-09-04T03:37:45Z,42.805,6.029,13.3068,4.60159,2470.661,2023-9-04T05:40:06Z
2023-09-04T03:40:48Z,42.805,6.029,13.3071,4.60170,2470.646,2023-9-04T05:43:09Z
2023-09-04T03:43:51Z,42.805,6.029,13.3080,4.60167,2470.661,2023-9-04T05:46:12Z
2023-09-04T03:46:54Z,42.805,6.029,13.3069,4.60179,2470.67,2023-9-04T05:49:15Z
2023-09-04T03:49:57Z,42.805,6.029,13.3057,4.60162,2470.661,2023-9-04T05:52:18Z
2023-09-04T03:53:00Z,42.805,6.029,13.3073,4.60157,2470.624,2023-9-04T05:55:21Z
2023-09-04T03:56:03Z,42.805,6.029,13.3069,4.60209,2470.684,2023-9-04T05:58:24Z
2023-09-04T03:59:06Z,42.805,6.029,13.3064,4.60180,2470.661,2023-9-04T06:01:27Z
2023-09-04T04:02:10Z,42.805,6.029,13.3076,4.60178,2470.646,2023-9-04T06:04:31Z
2023-09-04T04:05:13Z,42.805,6.029,13.3056,4.60184,2470.684,2023-9-04T06:07:34Z
2023-09-04T04:08:16Z,42.805,6.029,13.3073,4.60190,2470.646,2023-9-04T06:10:37Z
2023-09-04T04:11:19Z,42.805,6.029,13.3085,4.60174,2470.661,2023-9-04T06:13:40Z
2023-09-04T04:14:22Z,42.805,6.029,13.3061,4.60181,2470.661,2023-9-04T06:16:43Z
2023-09-04T04:17:25Z,42.805,6.029,13.3058,4.60167,2470.661,2023-9-04T06:19:46Z
2023-09-04T04:20:28Z,42.805,6.029,13.3049,4.60195,2470.646,2023-9-04T06:22:49Z
2023-09-04T04:23:31Z,42.805,6.029,13.3058,4.60205,2470.661,2023-9-04T06:25:52Z
2023-09-04T04:26:34Z,42.805,6.029,13.3068,4.60190,2470.637,2023-9-04T06:28:55Z
2023-09-04T04:29:37Z,42.805,6.029,13.3044,4.60205,2470.684,2023-9-04T06:31:58Z
2023-09-04T04:32:40Z,42.805,6.029,13.3073,4.60179,2470.661,2023-9-04T06:35:01Z
2023-09-04T04:35:43Z,42.805,6.029,13.3077,4.60188,2470.624,2023-9-04T06:38:04Z
2023-09-04T04:38:47Z,42.805,6.029,13.3058,4.60163,2470.637,2023-9-04T06:41:08Z
2023-09-04T04:41:50Z,42.805,6.029,13.3051,4.60163,2470.624,2023-9-04T06:44:11Z
2023-09-04T04:44:53Z,42.805,6.029,13.3067,4.60176,2470.646,2023-9-04T06:47:14Z
2023-09-04T04:47:56Z,42.805,6.029,13.3056,4.60184,2470.646,2023-9-04T06:50:17Z
2023-09-04T04:50:59Z,42.805,6.029,13.3070,4.60170,2470.637,2023-9-04T06:53:20Z
2023-09-04T04:54:02Z,42.805,6.029,13.3054,4.60182,2470.6,2023-9-04T06:56:23Z
2023-09-04T04:57:05Z,42.805,6.029,13.3064,4.60166,2470.624,2023-9-04T06:59:26Z
2023-09-04T05:00:08Z,42.805,6.029,13.3060,4.60179,2470.624,2023-9-04T07:02:29Z
2023-09-04T05:03:11Z,42.805,6.029,13.3074,4.60180,2470.637,2023-9-04T07:05:32Z
2023-09-04T05:06:14Z,42.805,6.029,13.3067,4.60180,2470.614,2023-9-04T07:08:35Z
2023-09-04T05:09:17Z,42.805,6.029,13.3081,4.60186,2470.6,2023-9-04T07:11:38Z
2023-09-04T05:12:20Z,42.805,6.029,13.3071,4.60180,2470.646,2023-9-04T07:14:41Z
2023-09-04T05:15:23Z,42.805,6.029,13.3069,4.60144,2470.67,2023-9-04T07:17:45Z
2023-09-04T05:18:27Z,42.805,6.029,13.3062,4.60152,2470.637,2023-9-04T07:20:48Z
2023-09-04T05:21:30Z,42.805,6.029,13.3067,4.60170,2470.661,2023-9-04T07:23:51Z
2023-09-04T05:24:33Z,42.805,6.029,13.3063,4.60185,2470.646,2023-9-04T07:26:54Z
2023-09-04T05:27:36Z,42.805,6.029,13.3068,4.60202,2470.624,2023-9-04T07:29:57Z
2023-09-04T05:30:39Z,42.805,6.029,13.3072,4.60180,2470.624,2023-9-04T07:33:00Z
2023-09-04T05:33:42Z,42.805,6.029,13.3056,4.60170,2470.624,2023-9-04T07:36:03Z
2023-09-04T05:36:45Z,42.805,6.029,13.3055,4.60150,2470.67,2023-9-04T07:39:06Z
2023-09-04T05:39:48Z,42.805,6.029,13.3074,4.60171,2470.684,2023-9-04T07:42:09Z
2023-09-04T05:42:51Z,42.805,6.029,13.3052,4.60187,2470.646,2023-9-04T07:45:12Z
2023-09-04T05:45:54Z,42.805,6.029,13.3060,4.60171,2470.646,2023-9-04T07:48:15Z
2023-09-04T05:48:57Z,42.805,6.029,13.3065,4.60207,2470.646,2023-9-04T07:51:18Z
2023-09-04T05:52:00Z,42.805,6.029,13.3059,4.60180,2470.661,2023-9-04T07:54:21Z
2023-09-04T05:55:04Z,42.805,6.029,13.3070,4.60170,2470.624,2023-9-04T07:57:25Z
2023-09-04T05:58:07Z,42.805,6.029,13.3054,4.60156,2470.661,2023-9-04T08:00:28Z
2023-09-04T06:01:10Z,42.805,6.029,13.3056,4.60179,2470.633,2023-9-04T08:03:31Z
2023-09-04T06:04:13Z,42.805,6.029,13.3054,4.60185,2470.637,2023-9-04T08:06:34Z
2023-09-04T06:07:16Z,42.805,6.029,13.3058,4.60162,2470.67,2023-9-04T08:09:37Z
2023-09-04T06:10:19Z,42.805,6.029,13.3069,4.60168,2470.646,2023-9-04T08:12:40Z
2023-09-04T06:13:22Z,42.805,6.029,13.3058,4.60176,2470.684,2023-9-04T08:15:43Z
2023-09-04T06:16:25Z,42.805,6.029,13.3043,4.60140,2470.646,2023-9-04T08:18:46Z
2023-09-04T06:19:28Z,42.805,6.029,13.3048,4.60150,2470.67,2023-9-04T08:21:49Z
2023-09-04T06:22:31Z,42.805,6.029,13.3043,4.60195,2470.693,2023-9-04T08:24:52Z
2023-09-04T06:25:34Z,42.805,6.029,13.3056,4.60157,2470.646,2023-9-04T08:27:55Z
2023-09-04T06:28:37Z,42.805,6.029,13.3046,4.60175,2470.693,2023-9-04T08:30:58Z
2023-09-04T06:31:40Z,42.805,6.029,13.3042,4.60174,2470.646,2023-9-04T08:34:01Z
2023-09-04T06:34:43Z,42.805,6.029,13.3051,4.60144,2470.693,2023-9-04T08:37:04Z
2023-09-04T06:37:47Z,42.805,6.029,13.3042,4.60156,2470.684,2023-9-04T08:40:08Z
2023-09-04T06:40:50Z,42.805,6.029,13.3041,4.60162,2470.67,2023-9-04T08:43:11Z
2023-09-04T06:43:53Z,42.805,6.029,13.3053,4.60144,2470.67,2023-9-04T08:46:14Z
2023-09-04T06:46:56Z,42.805,6.029,13.3045,4.60143,2470.707,2023-9-04T08:49:17Z
2023-09-04T06:49:59Z,42.805,6.029,13.3048,4.60152,2470.693,2023-9-04T08:52:20Z
2023-09-04T06:53:02Z,42.805,6.029,13.3054,4.60170,2470.707,2023-9-04T08:55:23Z
2023-09-04T06:56:05Z,42.805,6.029,13.3052,4.60146,2470.707,2023-9-04T08:58:26Z
2023-09-04T06:59:08Z,42.805,6.029,13.3047,4.60138,2470.693,2023-9-04T09:01:29Z
2023-09-04T07:02:11Z,42.805,6.029,13.3061,4.60162,2470.693,2023-9-04T09:04:32Z
2023-09-04T07:05:14Z,42.805,6.029,13.3056,4.60202,2470.754,2023-9-04T09:07:35Z
2023-09-04T07:08:17Z,42.805,6.029,13.3046,4.60161,2470.73,2023-9-04T09:10:38Z
2023-09-04T07:11:20Z,42.805,6.029,13.3058,4.60137,2470.707,2023-9-04T09:13:41Z
2023-09-04T07:14:23Z,42.805,6.029,13.3054,4.60155,2470.73,2023-9-04T09:16:45Z
2023-09-04T07:17:27Z,42.805,6.029,13.3042,4.60148,2470.717,2023-9-04T09:19:48Z
2023-09-04T07:20:30Z,42.805,6.029,13.3069,4.60145,2470.717,2023-9-04T09:22:51Z
2023-09-04T07:23:33Z,42.805,6.029,13.3051,4.60175,2470.717,2023-9-04T09:25:54Z
2023-09-04T07:26:36Z,42.805,6.029,13.3045,4.60185,2470.74,2023-9-04T09:28:57Z
2023-09-04T07:29:39Z,42.805,6.029,13.3042,4.60142,2470.717,2023-9-04T09:32:00Z
2023-09-04T07:32:42Z,42.805,6.029,13.3046,4.60183,2470.777,2023-9-04T09:35:03Z
2023-09-04T07:35:45Z,42.805,6.029,13.3047,4.60216,2470.74,2023-9-04T09:38:06Z
2023-09-04T07:38:48Z,42.805,6.029,13.3046,4.60182,2470.754,2023-9-04T09:41:09Z
2023-09-04T07:41:51Z,42.805,6.029,13.3041,4.60165,2470.73,2023-9-04T09:44:12Z
2023-09-04T07:44:54Z,42.805,6.029,13.3038,4.60142,2470.754,2023-9-04T09:47:15Z
2023-09-04T07:47:57Z,42.805,6.029,13.3048,4.60144,2470.754,2023-9-04T09:50:18Z
2023-09-04T07:51:00Z,42.805,6.029,13.3069,4.60166,2470.74,2023-9-04T09:53:21Z
2023-09-04T07:54:04Z,42.805,6.029,13.3055,4.60132,2470.74,2023-9-04T09:56:25Z
2023-09-04T07:57:07Z,42.805,6.029,13.3046,4.60168,2470.763,2023-9-04T09:59:28Z
2023-09-04T08:00:10Z,42.805,6.029,13.3051,4.60161,2470.74,2023-9-04T10:02:31Z
2023-09-04T08:03:13Z,42.805,6.029,13.3046,4.60145,2470.754,2023-9-04T10:05:34Z
2023-09-04T08:06:16Z,42.805,6.029,13.3070,4.60157,2470.754,2023-9-04T10:08:37Z
2023-09-04T08:09:19Z,42.805,6.029,13.3069,4.60144,2470.74,2023-9-04T10:11:40Z
2023-09-04T08:12:22Z,42.805,6.029,13.3044,4.60150,2470.763,2023-9-04T10:14:43Z
2023-09-04T08:15:25Z,42.805,6.029,13.3054,4.60141,2470.777,2023-9-04T10:17:46Z
2023-09-04T08:18:28Z,42.805,6.029,13.3042,4.60137,2470.763,2023-9-04T10:20:49Z
2023-09-04T08:21:31Z,42.805,6.029,13.3042,4.60132,2470.763,2023-9-04T10:23:52Z
2023-09-04T08:24:34Z,42.805,6.029,13.3046,4.60133,2470.787,2023-9-04T10:26:55Z
2023-09-04T08:27:37Z,42.805,6.029,13.3043,4.60142,2470.8,2023-9-04T10:29:58Z
2023-09-04T08:30:39Z,42.805,6.029,13.3047,4.60156,2470.763,2023-9-04T10:33:00Z
2023-09-04T08:33:42Z,42.805,6.029,13.3045,4.60149,2470.763,2023-9-04T10:36:03Z
2023-09-04T08:36:45Z,42.805,6.029,13.3048,4.60154,2470.763,2023-9-04T10:39:06Z
2023-09-04T08:39:48Z,42.805,6.029,13.3051,4.60142,2470.81,2023-9-04T10:42:09Z
2023-09-04T08:42:51Z,42.805,6.029,13.3045,4.60152,2470.8,2023-9-04T10:45:12Z
2023-09-04T08:45:54Z,42.805,6.029,13.3050,4.60142,2470.787,2023-9-04T10:48:15Z
2023-09-04T08:48:57Z,42.805,6.029,13.3043,4.60152,2470.81,2023-9-04T10:51:18Z
2023-09-04T08:52:00Z,42.805,6.029,13.3048,4.60145,2470.81,2023-9-04T10:54:21Z
2023-09-04T08:55:03Z,42.805,6.029,13.3070,4.60152,2470.81,2023-9-04T10:57:24Z
2023-09-04T08:58:07Z,42.805,6.029,13.3057,4.60150,2470.81,2023-9-04T11:00:28Z
2023-09-04T09:01:10Z,42.805,6.029,13.3058,4.60172,2470.763,2023-9-04T11:03:31Z
2023-09-04T09:04:13Z,42.805,6.029,13.3048,4.60141,2470.787,2023-9-04T11:06:34Z
2023-09-04T09:07:16Z,42.805,6.029,13.3051,4.60160,2470.763,2023-9-04T11:09:37Z
2023-09-04T09:10:19Z,42.805,6.029,13.3067,4.60167,2470.787,2023-9-04T11:12:40Z
2023-09-04T09:13:22Z,42.805,6.029,13.3063,4.60163,2470.8,2023-9-04T11:15:43Z
2023-09-04T09:16:25Z,42.805,6.029,13.3071,4.60160,2470.8,2023-9-04T11:18:46Z
2023-09-04T09:19:28Z,42.805,6.029,13.3062,4.60176,2470.824,2023-9-04T11:21:49Z
2023-09-04T09:22:31Z,42.805,6.029,13.3061,4.60185,2470.824,2023-9-04T11:24:52Z
2023-09-04T09:25:34Z,42.805,6.029,13.3076,4.60175,2470.824,2023-9-04T11:27:55Z
2023-09-04T09:28:37Z,42.805,6.029,13.3067,4.60168,2470.824,2023-9-04T11:30:58Z
2023-09-04T09:31:40Z,42.805,6.029,13.3066,4.60183,2470.824,2023-9-04T11:34:01Z
2023-09-04T09:34:44Z,42.805,6.029,13.3056,4.60155,2470.81,2023-9-04T11:37:05Z
2023-09-04T09:37:47Z,42.805,6.029,13.3038,4.60141,2470.8,2023-9-04T11:40:08Z
2023-09-04T09:40:50Z,42.805,6.029,13.3045,4.60132,2470.81,2023-9-04T11:43:11Z
2023-09-04T09:43:53Z,42.805,6.029,13.3054,4.60140,2470.81,2023-9-04T11:46:14Z
2023-09-04T09:46:56Z,42.805,6.029,13.3054,4.60122,2470.824,2023-9-04T11:49:17Z
2023-09-04T09:49:59Z,42.805,6.029,13.3061,4.60155,2470.8,2023-9-04T11:52:20Z
2023-09-04T09:53:02Z,42.805,6.029,13.3051,4.60152,2470.824,2023-9-04T11:55:23Z
2023-09-04T09:56:05Z,42.805,6.029,13.3059,4.60153,2470.81,2023-9-04T11:58:26Z
2023-09-04T09:59:08Z,42.805,6.029,13.3065,4.60157,2470.8,2023-9-04T12:01:29Z
2023-09-04T10:02:11Z,42.805,6.029,13.3070,4.60125,2470.81,2023-9-04T12:04:32Z
2023-09-04T10:05:14Z,42.805,6.029,13.3054,4.60158,2470.81,2023-9-04T12:07:35Z
2023-09-04T10:08:17Z,42.805,6.029,13.3065,4.60153,2470.824,2023-9-04T12:10:38Z
2023-09-04T10:11:20Z,42.805,6.029,13.3068,4.60161,2470.8,2023-9-04T12:13:42Z
2023-09-04T10:14:24Z,42.805,6.029,13.3066,4.60142,2470.824,2023-9-04T12:16:45Z
2023-09-04T10:17:27Z,42.805,6.029,13.3071,4.60173,2470.8,2023-9-04T12:19:48Z
2023-09-04T10:20:30Z,42.805,6.029,13.3070,4.60164,2470.81,2023-9-04T12:22:51Z
2023-09-04T10:23:33Z,42.805,6.029,13.3075,4.60178,2470.81,2023-9-04T12:25:54Z
2023-09-04T10:26:36Z,42.805,6.029,13.3046,4.60140,2470.824,2023-9-04T12:28:57Z
2023-09-04T10:29:39Z,42.805,6.029,13.3043,4.60128,2470.773,2023-9-04T12:32:00Z
2023-09-04T10:32:42Z,42.805,6.029,13.3040,4.60143,2470.787,2023-9-04T12:35:03Z
2023-09-04T10:35:45Z,42.805,6.029,13.3047,4.60160,2470.8,2023-9-04T12:38:06Z
2023-09-04T10:38:48Z,42.805,6.029,13.3051,4.60150,2470.847,2023-9-04T12:41:09Z
2023-09-04T10:41:52Z,42.805,6.029,13.3067,4.60160,2470.81,2023-9-04T12:44:13Z
2023-09-04T10:44:55Z,42.805,6.029,13.3046,4.60154,2470.787,2023-9-04T12:47:16Z
2023-09-04T10:47:58Z,42.805,6.029,13.3071,4.60162,2470.8,2023-9-04T12:50:19Z
2023-09-04T10:51:01Z,42.805,6.029,13.3083,4.60180,2470.787,2023-9-04T12:53:22Z
2023-09-04T10:54:04Z,42.805,6.029,13.3083,4.60194,2470.763,2023-9-04T12:56:25Z
2023-09-04T10:57:07Z,42.805,6.029,13.3095,4.60199,2470.763,2023-9-04T12:59:28Z
2023-09-04T11:00:10Z,42.805,6.029,13.3051,4.60160,2470.763,2023-9-04T13:02:31Z
2023-09-04T11:03:13Z,42.805,6.029,13.3073,4.60172,2470.8,2023-9-04T13:05:34Z
2023-09-04T11:06:16Z,42.805,6.029,13.3078,4.60178,2470.787,2023-9-04T13:08:37Z
2023-09-04T11:09:19Z,42.805,6.029,13.3069,4.60180,2470.8,2023-9-04T13:11:40Z
2023-09-04T11:12:22Z,42.805,6.029,13.3093,4.60183,2470.763,2023-9-04T13:14:43Z
2023-09-04T11:15:25Z,42.805,6.029,13.3065,4.60127,2470.74,2023-9-04T13:17:46Z
2023-09-04T11:18:29Z,42.805,6.029,13.3064,4.60150,2470.754,2023-9-04T13:20:50Z
2023-09-04T11:21:32Z,42.805,6.029,13.3083,4.60176,2470.74,2023-9-04T13:23:53Z
2023-09-04T11:24:35Z,42.805,6.029,13.3067,4.60170,2470.717,2023-9-04T13:26:56Z
2023-09-04T11:27:38Z,42.805,6.029,13.3076,4.60180,2470.8,2023-9-04T13:29:59Z
2023-09-04T11:30:41Z,42.805,6.029,13.3075,4.60191,2470.763,2023-9-04T13:33:02Z
2023-09-04T11:33:44Z,42.805,6.029,13.3078,4.60162,2470.8,2023-9-04T13:36:05Z
2023-09-04T11:36:47Z,42.805,6.029,13.3084,4.60176,2470.777,2023-9-04T13:39:08Z
2023-09-04T11:39:50Z,42.805,6.029,13.3066,4.60181,2470.763,2023-9-04T13:42:11Z
2023-09-04T11:42:53Z,42.805,6.029,13.3078,4.60161,2470.754,2023-9-04T13:45:14Z
2023-09-04T11:45:56Z,42.805,6.029,13.3077,4.60188,2470.726,2023-9-04T13:48:17Z
2023-09-04T11:48:59Z,42.805,6.029,13.3109,4.60220,2470.777,2023-9-04T13:51:20Z
2023-09-04T11:52:02Z,42.805,6.029,13.3109,4.60185,2470.754,2023-9-04T13:54:23Z
2023-09-04T11:55:06Z,42.805,6.029,13.3116,4.60248,2470.777,2023-9-04T13:57:27Z
2023-09-04T11:58:09Z,42.805,6.029,13.3058,4.60173,2470.777,2023-9-04T14:00:30Z
2023-09-04T12:01:12Z,42.805,6.029,13.3054,4.60192,2470.777,2023-9-04T14:03:33Z
2023-09-04T12:04:15Z,42.805,6.029,13.3077,4.60203,2470.74,2023-9-04T14:06:36Z
2023-09-04T12:07:18Z,42.805,6.029,13.3100,4.60173,2470.74,2023-9-04T14:09:39Z
2023-09-04T12:10:21Z,42.805,6.029,13.3078,4.60145,2470.74,2023-9-04T14:12:42Z
2023-09-04T12:13:24Z,42.805,6.029,13.3089,4.60158,2470.754,2023-9-04T14:15:45Z
2023-09-04T12:16:27Z,42.805,6.029,13.3080,4.60145,2470.74,2023-9-04T14:18:48Z
2023-09-04T12:19:30Z,42.805,6.029,13.3093,4.60163,2470.74,2023-9-04T14:21:51Z
2023-09-04T12:22:33Z,42.805,6.029,13.3088,4.60162,2470.717,2023-9-04T14:24:54Z
2023-09-04T12:25:36Z,42.805,6.029,13.3092,4.60173,2470.73,2023-9-04T14:27:57Z
2023-09-04T12:28:39Z,42.805,6.029,13.3099,4.60125,2470.754,2023-9-04T14:31:00Z
2023-09-04T12:31:44Z,42.805,6.029,13.3103,4.60139,2470.717,2023-9-04T14:34:05Z
2023-09-04T12:34:47Z,42.805,6.029,13.3084,4.60150,2470.73,2023-9-04T14:37:08Z
2023-09-04T12:37:51Z,42.805,6.029,13.3096,4.60128,2470.73,2023-9-04T14:40:12Z
2023-09-04T12:40:54Z,42.805,6.029,13.3072,4.60162,2470.754,2023-9-04T14:43:15Z
2023-09-04T12:43:57Z,42.805,6.029,13.3067,4.60147,2470.717,2023-9-04T14:46:18Z
2023-09-04T12:47:00Z,42.805,6.029,13.3065,4.60145,2470.73,2023-9-04T14:49:21Z
2023-09-04T12:50:03Z,42.805,6.029,13.3093,4.60164,2470.73,2023-9-04T14:52:24Z
2023-09-04T12:53:06Z,42.805,6.029,13.3058,4.60170,2470.707,2023-9-04T14:55:27Z
2023-09-04T12:56:09Z,42.805,6.029,13.3070,4.60140,2470.754,2023-9-04T14:58:30Z
2023-09-04T12:59:12Z,42.805,6.029,13.3085,4.60167,2470.707,2023-9-04T15:01:33Z
2023-09-04T13:02:15Z,42.805,6.029,13.3086,4.60137,2470.717,2023-9-04T15:04:36Z
2023-09-04T13:05:18Z,42.805,6.029,13.3073,4.60148,2470.73,2023-9-04T15:07:39Z
2023-09-04T13:08:21Z,42.805,6.029,13.3081,4.60137,2470.707,2023-9-04T15:10:42Z
2023-09-04T13:11:24Z,42.805,6.029,13.3085,4.60155,2470.73,2023-9-04T15:13:45Z
2023-09-04T13:14:27Z,42.805,6.029,13.3074,4.60148,2470.717,2023-9-04T15:16:49Z
2023-09-04T13:17:31Z,42.805,6.029,13.3074,4.60164,2470.67,2023-9-04T15:19:52Z
2023-09-04T13:20:34Z,42.805,6.029,13.3098,4.60128,2470.693,2023-9-04T15:22:55Z
2023-09-04T13:23:37Z,42.805,6.029,13.3070,4.60164,2470.693,2023-9-04T15:25:58Z
2023-09-04T13:26:40Z,42.805,6.029,13.3067,4.60152,2470.707,2023-9-04T15:29:01Z
2023-09-04T13:29:43Z,42.805,6.029,13.3072,4.60159,2470.707,2023-9-04T15:32:04Z
2023-09-04T13:32:46Z,42.805,6.029,13.3057,4.60128,2470.684,2023-9-04T15:35:07Z
2023-09-04T13:35:49Z,42.805,6.029,13.3071,4.60166,2470.684,2023-9-04T15:38:10Z
2023-09-04T13:38:52Z,42.805,6.029,13.3044,4.60150,2470.67,2023-9-04T15:41:13Z
2023-09-04T13:41:55Z,42.805,6.029,13.3060,4.60155,2470.707,2023-9-04T15:44:16Z
2023-09-04T13:44:58Z,42.805,6.029,13.3085,4.60153,2470.707,2023-9-04T15:47:19Z
2023-09-04T13:48:01Z,42.805,6.029,13.3083,4.60165,2470.684,2023-9-04T15:50:22Z
2023-09-04T13:51:04Z,42.805,6.029,13.3084,4.60136,2470.661,2023-9-04T15:53:25Z
2023-09-04T13:54:07Z,42.805,6.029,13.3065,4.60140,2470.693,2023-9-04T15:56:29Z
2023-09-04T13:57:11Z,42.805,6.029,13.3063,4.60141,2470.67,2023-9-04T15:59:32Z
2023-09-04T14:00:14Z,42.805,6.029,13.3067,4.60147,2470.67,2023-9-04T16:02:35Z
2023-09-04T14:03:17Z,42.805,6.029,13.3093,4.60121,2470.717,2023-9-04T16:05:38Z
2023-09-04T14:06:20Z,42.805,6.029,13.3093,4.60163,2470.684,2023-9-04T16:08:41Z
2023-09-04T14:09:23Z,42.805,6.029,13.3084,4.60132,2470.646,2023-9-04T16:11:44Z
2023-09-04T14:12:26Z,42.805,6.029,13.3086,4.60130,2470.646,2023-9-04T16:14:47Z
2023-09-04T14:15:29Z,42.805,6.029,13.3088,4.60144,2470.67,2023-9-04T16:17:50Z
2023-09-04T14:18:32Z,42.805,6.029,13.3063,4.60129,2470.693,2023-9-04T16:20:53Z
2023-09-04T14:21:35Z,42.805,6.029,13.3087,4.60130,2470.707,2023-9-04T16:23:56Z
2023-09-04T14:24:38Z,42.805,6.029,13.3090,4.60135,2470.707,2023-9-04T16:26:59Z
2023-09-04T14:27:41Z,42.805,6.029,13.3085,4.60135,2470.67,2023-9-04T16:30:02Z
2023-09-04T14:30:44Z,42.805,6.029,13.3061,4.60126,2470.693,2023-9-04T16:33:06Z
2023-09-04T14:33:48Z,42.805,6.029,13.3082,4.60144,2470.661,2023-9-04T16:36:09Z
2023-09-04T14:36:51Z,42.805,6.029,13.3106,4.60189,2470.661,2023-9-04T16:39:12Z
2023-09-04T14:39:54Z,42.805,6.029,13.3080,4.60145,2470.684,2023-9-04T16:42:15Z
2023-09-04T14:42:57Z,42.805,6.029,13.3069,4.60165,2470.684,2023-9-04T16:45:18Z
2023-09-04T14:46:00Z,42.805,6.029,13.3071,4.60130,2470.646,2023-9-04T16:48:21Z
2023-09-04T14:49:03Z,42.805,6.029,13.3103,4.60133,2470.646,2023-9-04T16:51:24Z
2023-09-04T14:52:06Z,42.805,6.029,13.3070,4.60127,2470.67,2023-9-04T16:54:27Z
2023-09-04T14:55:09Z,42.805,6.029,13.3058,4.60152,2470.661,2023-9-04T16:57:30Z
2023-09-04T14:58:12Z,42.805,6.029,13.3067,4.60139,2470.661,2023-9-04T17:00:33Z
2023-09-04T15:01:15Z,42.805,6.029,13.3075,4.60136,2470.661,2023-9-04T17:03:36Z
2023-09-04T15:04:18Z,42.805,6.029,13.3053,4.60137,2470.637,2023-9-04T17:06:39Z
2023-09-04T15:07:21Z,42.805,6.029,13.3093,4.60125,2470.684,2023-9-04T17:09:42Z
2023-09-04T15:10:24Z,42.805,6.029,13.3081,4.60122,2470.661,2023-9-04T17:12:46Z
2023-09-04T15:13:28Z,42.805,6.029,13.3084,4.60125,2470.661,2023-9-04T17:15:49Z